Location: Newark
(25.4297°S, 49.2719°W)
Time: 18:09:36
(UTC+00:00)

Hubble Space Telescope - Pass Details

Date: 01 July 2021
Orbit: 535 x 539 km, 28.5° (Epoch: 25 July)

Event Time Altitude Azimuth Distance (km) Brightness Sun altitude
Rises 22:51:29 0° 280° (W) 2,675 5.6 -29.2°
Reaches altitude 10° 22:53:44 10° 278° (W) 1,786 4.3 -29.7°
Enters shadow 22:55:48 28° 274° (W) 1,019 2.7 -30.1°
